www.pogodaiklimat.ru

Погода и климат >> Архив погоды >> Канада >> Toronto


АРХИВ ПОГОДЫ в Toronto

Время (UTC), дата Ветер
(напр.,м/с)
 
Видим.   Явления Облачность Т
(С)
Тd
(С)
f
(%)
Тe
(С)
Тes
(С)
Комфортность P
(гПа)
Po
(гПа)
Тmin
(С)
Tmax
(С)
R
(мм)
R24
(мм)
S
(см)
21 12.08 З 3 24 км 9/9 1500 м
[]
+22.9 +16.7 68 +28 +28 душно 1011.0 990.5
00 13.08 СЗ 6 24 км {гроза, ливн. осадки} 5/3 1500 м
[Sc diur, vesp Ac cuf Ci ing]
+21.0 +14.4 66 +24 +24 комфорт 1012.0 991.5 +16.4 +25.7 0.4
03 13.08 СЗ 5 24 км 1/0 2000 м
[]
+18.5 +14.1 76 +19 +19 по сезону 1013.7 993.2
06 13.08 СЗ 5 24 км 1/0
[Ac As]
+17.2 +13.9 81 +17 +17 по сезону 1014.3 993.8 +16.4 +25.7 231
09 13.08 СЗ 3 24 км ясно +15.6 +13.0 85 +15 +15 прохладно 1014.9 994.2
12 13.08 СЗ 2 24 км ясно +17.7 +14.1 79 +18 +20 по сезону 1016.5 995.8 +13.4 +25.7
15 13.08 СЗ 3 24 км 6/6 1000 м
[]
+23.6 +12.9 51 +26 +30 жарко 1017.1 996.4
18 13.08 З 2 24 км 8/6 1500 м
[Cu hum Ci sp]
+25.3 +10.7 40 +26 +32 жарко 1016.6 995.9 +13.4 +25.7
21 13.08 Ю 4 24 км 8/0 2000 м
[]
+25.0 +13.2 48 +27 +30 жарко 1016.6 995.9
00 14.08 З 4 24 км 8/1 1500 м
[Sc Ac As Ci fib]
+22.9 +11.8 50 +25 +25 комфорт 1015.8 995.1 +13.4 +26.6
03 14.08 СЗ 3 24 км 8/0
[]
+21.1 +13.4 61 +23 +23 комфорт 1016.6 996.1
06 14.08 СЗ 3 24 км 6/0
[Ac As Ci fib]
+18.6 +13.3 71 +20 +20 тепло 1016.5 996.0 +13.4 +26.6 7
09 14.08 СЗ 1 24 км 9/0
[]
+17.6 +13.0 74 +19 +19 тепло 1016.4 995.8
12 14.08 С 1 24 км 9/0
[Ac As Ci fib]
+17.7 +13.7 77 +19 +21 тепло 1016.3 995.6 +16.7 +26.6
15 14.08 З 2 24 км 9/0 2000 м
[]
+23.5 +12.6 50 +25 +33 комфорт 1015.3 994.8
18 14.08 ЮВ 3 24 км 9/3 1500 м
[Cu hum Ac As Ci fib]
+25.3 +13.6 48 +27 +33 жарко 1013.8 993.3 +16.7 +25.4
21 14.08 ЮВ 4 24 км 8/8 1500 м
[]
+25.0 +12.3 45 +27 +28 жарко 1012.5 992.0
00 15.08 ЮВ 3 24 км 9/1 1500 м
[Cu med, cong Ac As Ci sp]
+22.0 +12.9 56 +25 +25 комфорт 1011.2 990.7 +16.7 +26.1
03 15.08 ЮВ 1 24 км 4/0
[]
+20.2 +17.1 82 +24 +24 комфорт 1011.0 990.6
06 15.08 З 2 24 км 5/0
[Ac trans Ci fib]
+18.1 +16.3 89 +19 +19 тепло 1010.6 990.2 +16.7 +26.1 20
09 15.08 ЮЗ 2 24 км 10/10 1500 м
[]
+17.2 +15.3 89 +18 +18 по сезону 1010.6 990.2
12 15.08 С 1 24 км {ливн. осадки} 6/1 600 м
[Cu hum Ac trans]
+18.6 +15.9 84 +21 +22 комфорт 1010.7 990.2 +16.2 +26.1 1
15 15.08 З 3 24 км 9/9 600 м
[]
+21.5 +17.1 76 +25 +27 комфорт 1011.3 990.8
18 15.08 СЗ 5 24 км в посл. час ливневой дождь 9/6 1000 м
[Cu med, cong Ac cuf]
+24.7 +17.5 64 +29 +30 душно 1011.1 990.7 +16.2 +25.9 0.0
21 15.08 СЗ 5 24 км 6/6 1500 м
[]
+27.2 +13.6 43 +29 +31 жарко 1011.2 990.8
00 16.08 С 5 24 км {ливн. осадки} 4/4 1500 м
[Cu Sc]
+23.6 +14.4 56 +26 +26 жарко 1012.5 992.0 +16.2 +27.5 0.0
03 16.08 С 5 24 км ясно +20.0 +15.5 75 +22 +22 комфорт 1014.3 993.8
06 16.08 С 5 24 км ясно +18.2 +14.0 76 +18 +18 по сезону 1015.0 994.5 +16.2 +27.5 22
09 16.08 С 4 24 км ясно +16.9 +14.2 84 +16 +16 по сезону 1016.2 995.7
12 16.08 С 3 24 км 9/0
[Ac As Ci fib]
+17.8 +15.2 85 +18 +19 по сезону 1018.4 997.7 +16.2 +27.5
15 16.08 В 3 24 км 9/9 600 м
[]
+20.2 +16.0 77 +23 +24 комфорт 1019.4 998.7
18 16.08 В 3 24 км 6/4 1000 м
[Sc Ac As Ci fib]
+23.6 +16.4 64 +27 +34 жарко 1018.7 998.0 +16.2 +23.9
21 16.08 ЮВ 4 24 км 3/3 1500 м
[]
+22.2 +15.6 66 +26 +30 душно 1018.0 997.3
00 17.08 ЮВ 3 24 км 3/1 1500 м
[Sc Ac As Ci fib]
+20.9 +15.1 69 +24 +24 комфорт 1017.2 996.5 +16.2 +23.9
03 17.08 ЮВ 2 24 км 1/0
[]
+19.6 +15.4 77 +22 +22 комфорт 1018.2 997.5
06 17.08 В 2 24 км 1/1 1500 м
[Sc]
+18.5 +15.5 83 +20 +20 тепло 1017.8 997.1 +16.2 +23.9 18
09 17.08 В 2 24 км 3/0
[]
+17.8 +15.8 88 +18 +18 по сезону 1016.5 995.8
12 17.08 В 3 24 км 9/0
[Ac As Ci sp]
+19.2 +15.8 81 +21 +22 комфорт 1016.6 995.9 +16.8 +23.9
15 17.08 ЮВ 5 24 км 9/0
[]
+23.5 +16.1 63 +27 +30 душно 1015.3 994.8
18 17.08 В 6 24 км слабый ливневой дождь 10/3 1000 м
[Sc Ac As]
+22.0 +16.0 69 +26 +27 душно 1013.1 992.6 +16.8 +23.7 0.0
21 17.08 В 5 9000 м 10/10 600 м
[]
+18.6 +16.9 90 +19 +19 холодно 1011.4 990.7
00 18.08 В 4 24 км в посл. час ливневой дождь 9/3 600 м
[Sc Ac As]
+19.1 +17.5 90 +21 +21 комфорт 1008.9 988.4 +16.8 +23.7 13
03 18.08 ЮВ 1 9000 м 10/10 50 м
[]
+19.9 +19.1 95 +24 +24 комфорт 1007.5 987.1
06 18.08 Ю 2 4800 м дымка {ливн. осадки} 10/10 50 м
[St]
+21.4 +20.8 96 +27 +27 душно 1005.5 985.2 +16.8 +23.7 2 16
09 18.08 ЮВ 2 9000 м ясно +20.6 +20.0 96 +26 +26 душно 1005.1 984.7
12 18.08 ЮЗ 5 24 км ясно +22.3 +20.6 90 +29 +30 очень
душно
1006.0 985.6 +19.1 +23.7
15 18.08 ЮЗ 7 24 км 9/9 600 м
[]
+25.2 +19.1 69 +30 +31 душно 1005.2 984.9
18 18.08 З 7 24 км 9/6 1000 м
[Cu Sc Ac As]
+24.4 +18.0 68 +29 +30 душно 1005.3 985.0 +18.2 +26.8
21 18.08 З 8 24 км 9/9 1000 м
[]
+23.7 +17.8 70 +28 +28 душно 1005.8 985.5
00 19.08 З 7 24 км 9/9 1000 м
[Cu Sc]
+22.6 +16.7 69 +27 +27 душно 1007.1 986.8 +20.5 +26.8
03 19.08 З 6 24 км 9/9 1000 м
[]
+20.4 +17.6 84 +24 +24 комфорт 1008.1 987.8
06 19.08 З 4 24 км {дождь} 9/9 600 м
[Sc]
+19.9 +16.7 82 +23 +23 комфорт 1009.1 988.7 +19.9 +26.8 0.0 231
09 19.08 З 5 24 км 3/3 600 м
[]
+18.1 +15.4 84 +18 +18 тепло 1008.6 988.2
12 19.08 З 5 24 км 9/9 300 м
[Cu hum Ac As]
+18.8 +15.5 81 +20 +20 тепло 1009.8 989.4 +17.0 +26.8
15 19.08 З 7 24 км 9/9 600 м
[]
+21.3 +16.3 73 +25 +25 комфорт 1010.3 989.9

 

Местоположение метеостанции Toronto (Канада): широта 43.67 долгота -79.63 высота над уровнем моря 173 м.

В архиве по умолчанию представлена погода в Toronto за последнюю неделю. Архивные данные за месяц целиком и за предыдущие месяцы, начиная с января 2011 года, Вы можете получить, выбрав интересующий диапазон дат из раскрывающегося списка и нажав кнопку "Ввод!".

Внимание! Время в таблицах - всемирное. Для получения местного времени необходимо прибавить поправку, которая в Toronto равна -5 ч.

Смотрите также архив погоды в соседних городах и на ближайших метеорологических станциях:

Погода в Toronto Aes Hq (Канада) (18 км)
Погода в Toronto City (Канада) (19 км)
Погода в Toronto Island Arpt (Канада) (19 км)
Погода в Toronto Buttonville (Канада) (31 км)
Погода в Buttonville (Канада) (31 км)
Погода в Burlington Piers (Канада) (43 км)
Погода в Hamilton Rbg Cs (Канада) (49 км)
Погода в Guelph Turfgrass (Канада) (49 км)
Погода в Vineland Station Rc (Канада) (58 км)
Погода в Port Weller (Канада) (58 км)

Пояснения к столбцам:

Ветер - указаны скорость ветра в м/с - средняя за 10 мин, порывы в срок и между сроками (в фигурных скобках) и направление, откуда дует ветер: С - северный, СВ - северо-восточный, В - восточный, ЮВ - юго-восточный, Ю - южный, ЮЗ - юго-западный, З - западный, СЗ - северо-западный.
Видимость - горизонтальная дальность видимости в метрах или километрах. При видимости от 1 до 10 км при отсутствии осадков обычно наблюдается дымка, при ухудшении видимости до 1 км и менее - туман. В сухую погоду видимость может ухудшаться дымом, пылью или мглою.
Явления - указаны атмосферные явления, наблюдавшиеся в срок или в последний час перед сроком; фигурными скобками обозначены явления, наблюдавшиеся между сроками (за 1-3 часа до срока); квадратными скобками обозначены град или гололедные отложения с указанием их диаметра в мм.
Облачность - указаны через наклонную черту общая и нижняя облачность в баллах и высота нижней границы облаков в метрах; квадратными скобками обозначены формы облаков: Ci - перистые, Cs - перисто-слоистые, Cc - перисто-кучевые, Ac - высококучевые, As - высокослоистые, Sc - слоисто-кучевые, Ns - слоисто-дождевые, Cu - кучевые, Cb - кучево-дождевые. Подробнее классификацию облаков см. в Атласе облаков (PDF).
T - Температура воздуха - температура, измеренная на высоте 2 м над землей.
Td - Температура точки росы - температура, при понижении до которой содержащийся в воздухе водяной пар достигнет насыщения.
f - Относительная влажность воздуха - влажноcть воздуха, измеренная на высоте 2 м над землей.
Te - Эффективная температура - температура, которую ощущает одетый по сезону человек в тени. Характеристика душности погоды. При расчете учитывается влияние влажности воздуха и скорости ветра на теплоощущения человека.
Tes - Эффективная температура на солнце - температура, которую ощущает человек, с поправкой на солнечный нагрев. Характеристика знойности погоды. Зависит от высоты солнца над горизонтом, облачности и скорости ветра. Ночью, в пасмурную погоду, а также при ветре 12 м/с и более поправка равна нулю.
P - Атмосферное давление - приведенное к уровню моря атмосферное давление.
Po - Атмосферное давление - измеренное на уровне метеостанции атмосферное давление.
Tmin - Минимальная температура - минимум температуры воздуха на высоте 2 м над землей.
Tmax - Максимальная температура - максимум температуры воздуха на высоте 2 м над землей.
R - Количество осадков - Количество выпавших осадков за период времени, мм. При наведении курсора мыши на число - период времени, за который выпало указанное количество осадков.
R24 - Количество осадков - Количество выпавших осадков за 24 часа, мм.
S - Снежный покров - Высота снежного покрова, см. При наведении курсора мыши на число - состояние снежного покрова и степень покрытия местности в баллах.